Temp
72 73 73 74 75 76 76 78 80 82 81 85 86 85 83 81 81 80 83 83 81 81 80 78 79 80 82 83 83 83 81 81 77 78 79 72 70 72 73 74 75 79 76
74 72 72 73 74 75 76 78 80 79 81 85 86 84 84 84 82 82 83 84 81 79 79 79 79 80 77 79 81 78 80 80 79 71 71 70 71 71 68 68 74 79 77
73 73 71 69 70 74 76 77 80 81 81 85 87 86 86 86 84 84 84 83 82 81 79 78 79 78 76 79 78 79 79 78 78 74 70 72 69 66 65 66 69 69 74
72 71 70 69 67 71 77 77 81 83 83 85 86 87 88 87 86 86 85 83 82 80 79 79 79 78 77 77 77 76 77 76 76 75 69 70 69 65 66 63 65 66 65
69 69 69 70 68 72 77 78 81 83 84 87 86 87 88 87 88 85 84 82 79 78 78 80 79 76 68 71 79 76 75 74 71 72 72 68 68 63 64 65 63 63 63
66 67 70 71 70 71 78 78 80 82 83 85 85 86 85 87 57 61 75 80 79 79 77 77 79 66 65 57 55 56 63 74 73 70 67 71 67 67 65 66 63 60 58
63 66 68 69 70 71 78 79 80 80 82 83 84 85 83 84 55 55 60 81 79 78 77 77 78 79 70 76 56 53 55 54 56 70 68 68 68 64 66 63 65 63 61
59 62 64 68 70 73 78 79 79 81 80 82 82 83 81 76 52 53 57 79 78 78 78 77 77 76 74 76 76 75 75 72 70 71 68 68 67 64 66 67 63 64 65
54 59 65 68 69 75 78 79 80 80 80 81 82 81 76 69 50 50 64 79 77 77 79 79 77 77 54 50 75 74 71 67 53 49 51 52 50 52 61 63 59 60 63
59 66 69 70 71 78 80 76 77 79 79 83 79 77 68 71 47 50 64 81 75 78 77 76 51 68 47 47 73 72 65 65 62 58 58 55 54 57 52 68 65 64 62
53 57 61 72 77 76 72 72 73 73 74 75 74 75 76 71 59 48 48 81 79 79 78 76 76 46 45 45 48 69 66 68 58 60 60 60 66 67 69 71 69 67 70
61 68 69 69 70 70 70 70 71 72 71 71 72 73 72 72 54 47 47 52 64 79 79 79 70 45 44 44 52 46 48 55 66 64 63 61 63 62 65 69 71 72 68
61 63 66 68 68 69 68 69 70 73 70 70 74 69 72 73 66 45 46 48 49 72 81 56 45 42 43 49 44 44 47 66 68 68 66 67 66 63 64 68 67 66 70
60 63 64 66 66 67 70 75 75 74 73 72 69 72 72 71 68 68 66 66 53 65 55 62 55 54 48 57 54 55 67 68 67 66 65 67 66 62 61 62 64 68 69
61 61 63 63 63 63 62 70 77 74 74 72 75 75 72 71 71 65 66 74 76 66 67 65 65 65 62 61 64 68 73 72 68 66 66 65 64 61 59 61 63 65 64
63 60 59 60 62 64 64 58 45 49 47 48 55 69 76 56 47 45 43 44 46 47 69 68 63 63 60 62 65 70 72 66 67 66 64 64 63 61 58 58 61 60 63
62 60 61 61 67 66 68 65 60 53 43 41 43 48 52 48 44 44 43 43 43 48 71 67 62 62 63 63 68 71 72 73 72 68 67 64 62 59 55 56 57 61 58
63 52 66 68 68 75 72 70 66 69 65 62 45 48 43 42 42 42 42 47 59 62 69 67 65 63 63 63 68 71 72 72 72 69 65 63 61 58 57 57 56 60 60
62 63 68 74 75 71 74 72 73 71 66 61 59 48 43 40 40 42 45 70 66 65 67 68 68 66 63 65 69 66 71 69 69 69 68 65 63 59 60 62 59 46 54
67 58 64 70 73 74 74 72 68 68 69 71 72 60 52 52 54 56 65 72 71 70 67 68 70 68 63 67 64 70 71 69 69 69 69 69 67 64 61 60 59 58 57
68 71 54 74 73 76 75 73 72 72 70 72 70 60 47 71 63 63 66 69 70 70 71 71 68 69 68 66 68 70 72 74 73 71 69 68 64 66 67 64 62 62 64
72 73 74 74 74 74 73 72 74 72 71 69 62 57 40 68 63 59 58 60 63 63 67 67 66 63 62 65 69 70 70 69 71 68 67 68 67 65 63 64 64 64 63
75 75 77 74 72 62 73 73 73 73 69 63 62 63 65 62 58 56 54 59 60 63 62 61 56 55 56 61 60 63 64 68 70 69 66 63 63 66 69 63 63 64 63
79 76 74 74 76 74 73 72 70 60 63 63 62 58 55 53 51 49 48 50 49 49 50 48 49 51 52 53 52 53 56 54 74 68 67 61 61 59 62 61 63 61 59
80 78 77 74 72 70 69 66 63 64 65 61 57 53 51 49 47 47 46 48 47 45 45 45 44 44 46 47 45 44 36 35 57 45 66 64 59 60 58 57 58 57 56
76 75 73 71 66 67 65 63 62 61 60 57 53 49 48 46 45 45 46 51 50 47 47 45 45 43 42 42 41 36 35 37 44 39 56 55 51 50 50 50 50 49 52
MSLP
1002.24 1002.13 1001.62 1001.32 1001.12 1000.86 1000.43 999.98 999.89 999.62 999.98 999.83 1000.32 1000.57 1001.11 1001.93 1002.87 1003.07 1002.88 1003.32 1004.44 1004.99 1005.68 1006.25 1006.19 1006.64 1006.88 1006.80 1007.49 1007.39 1007.43 1007.49 1007.27 1008.00 1008.86 1009.99 1010.13 1010.14 1010.28 1010.24 1010.26 1009.74 1010.25
1001.56 1001.22 1000.68 1000.83 1000.29 999.64 999.54 999.02 998.78 998.72 999.07 998.84 999.53 1000.04 1000.43 1001.19 1001.85 1001.96 1002.14 1002.66 1003.82 1004.38 1005.12 1005.74 1005.91 1006.42 1006.78 1007.04 1007.39 1007.39 1007.40 1007.48 1007.48 1008.12 1009.24 1009.79 1009.93 1010.32 1010.67 1010.60 1010.36 1009.78 1009.65
1001.15 1000.75 1000.37 1000.20 999.65 998.66 998.30 997.98 997.59 997.77 997.87 998.13 998.39 998.61 998.91 999.85 1000.78 1001.32 1001.52 1002.36 1003.25 1004.00 1004.73 1005.25 1005.58 1006.07 1006.38 1006.68 1007.17 1007.16 1007.46 1007.71 1007.99 1008.24 1008.91 1009.59 1010.12 1010.67 1010.87 1010.90 1010.71 1010.73 1010.53
999.91 999.58 999.30 998.89 998.45 997.94 997.16 996.85 996.66 996.73 996.87 997.18 997.33 997.50 997.83 998.84 1000.07 1000.52 1001.13 1002.07 1002.90 1003.81 1004.65 1004.90 1005.37 1005.78 1006.12 1006.63 1006.99 1007.29 1007.38 1007.56 1007.84 1008.06 1008.77 1009.27 1009.83 1010.57 1010.66 1010.82 1010.83 1011.02 1011.18
999.05 998.53 997.97 997.79 997.64 996.84 995.78 995.50 995.56 995.58 995.85 996.14 996.41 996.68 997.26 998.13 999.21 999.67 1000.77 1001.70 1002.82 1003.59 1004.31 1004.78 1005.39 1005.65 1006.15 1006.46 1006.58 1007.11 1007.28 1007.73 1007.83 1007.88 1008.37 1009.07 1009.49 1010.25 1010.36 1010.63 1010.83 1011.15 1011.45
998.25 997.53 997.09 996.59 996.43 995.91 994.64 994.60 994.50 994.95 995.13 995.24 995.54 996.27 996.94 997.75 999.22 999.87 1000.59 1001.56 1002.48 1003.17 1003.86 1004.59 1005.12 1006.12 1006.52 1006.94 1007.20 1007.58 1007.86 1007.78 1007.81 1008.02 1008.44 1008.50 1009.03 1009.58 1010.10 1010.36 1010.84 1011.09 1011.50
997.48 996.59 995.83 995.42 994.68 994.14 993.16 993.41 993.64 993.79 994.02 994.46 995.25 995.97 997.06 998.20 999.51 1000.28 1000.85 1001.43 1002.34 1002.93 1003.61 1004.29 1004.91 1005.56 1006.31 1006.61 1007.48 1007.78 1007.99 1008.23 1008.45 1008.41 1008.41 1008.45 1008.71 1009.58 1009.83 1010.35 1010.58 1010.74 1010.97
996.42 995.23 994.78 994.03 993.12 992.72 991.86 992.01 992.34 992.78 993.25 993.98 994.84 995.84 997.18 998.89 999.97 1000.58 1001.17 1001.78 1002.20 1002.80 1003.51 1004.23 1004.68 1005.20 1005.92 1006.07 1006.51 1006.93 1007.19 1008.01 1008.56 1008.63 1008.68 1008.64 1008.99 1009.48 1009.41 1010.13 1010.51 1010.55 1010.95
994.05 993.06 992.34 991.87 991.53 990.60 990.24 990.69 991.32 992.06 992.89 993.84 994.67 995.69 997.15 999.22 1000.24 1000.78 1001.14 1001.45 1002.07 1002.73 1003.47 1004.06 1004.63 1005.00 1005.92 1006.55 1006.29 1006.59 1007.18 1008.26 1009.11 1009.06 1009.00 1008.92 1009.22 1009.21 1009.50 1010.32 1010.64 1010.63 1010.80
991.04 989.72 989.49 989.62 989.63 988.66 988.98 989.80 990.79 991.74 992.66 993.49 994.53 995.77 997.07 998.96 1000.47 1000.76 1000.91 1001.10 1001.94 1002.51 1003.50 1004.23 1005.07 1005.13 1006.25 1006.79 1006.56 1006.67 1007.35 1008.00 1008.89 1009.38 1009.53 1009.63 1009.56 1009.79 1009.74 1009.82 1010.21 1009.77 1010.36
987.78 986.69 987.25 986.75 986.88 987.55 988.83 990.14 991.05 991.97 992.83 993.65 994.82 996.05 997.34 998.51 1000.47 1000.97 1001.13 1000.88 1001.53 1002.38 1003.06 1003.95 1004.77 1006.15 1006.52 1006.96 1007.14 1006.85 1007.04 1007.65 1008.70 1009.00 1009.13 1009.34 1009.21 1009.45 1009.53 1009.56 1009.62 1009.51 1009.43
982.27 983.42 984.65 985.41 986.69 988.21 989.38 990.34 991.17 991.68 992.64 993.87 995.12 996.37 997.74 998.83 1000.36 1001.49 1001.47 1001.64 1001.65 1002.15 1002.49 1003.24 1004.59 1006.20 1006.80 1007.25 1007.27 1007.46 1007.52 1007.80 1008.16 1008.44 1008.68 1008.97 1009.14 1009.43 1009.53 1009.45 1009.38 1009.32 1009.70
985.26 985.38 985.77 986.60 987.67 988.69 989.54 990.25 991.09 991.81 992.83 994.09 995.03 996.49 997.67 999.17 1000.88 1001.92 1002.09 1002.04 1002.72 1002.88 1002.49 1004.27 1005.42 1006.46 1007.04 1007.34 1007.52 1007.60 1007.75 1007.57 1007.47 1007.68 1007.96 1008.24 1008.71 1009.31 1009.57 1009.55 1009.67 1009.94 1009.91
987.46 987.36 987.26 987.52 988.45 989.31 989.81 990.20 990.74 991.96 992.98 994.15 995.29 996.41 997.86 999.30 1000.79 1001.56 1002.25 1002.88 1003.36 1003.50 1004.41 1005.25 1005.94 1006.35 1006.73 1007.04 1007.79 1007.92 1007.29 1007.19 1007.41 1007.61 1007.94 1008.12 1008.74 1009.34 1009.69 1009.96 1009.92 1009.74 1009.84
989.12 988.67 988.56 988.83 989.07 989.55 990.58 990.91 991.23 992.85 993.08 994.44 995.43 996.37 997.44 998.89 1000.30 1000.82 1001.62 1002.14 1002.36 1003.16 1004.24 1005.32 1005.81 1006.17 1006.77 1007.20 1007.22 1006.91 1006.49 1006.78 1007.21 1007.61 1007.82 1008.40 1008.88 1009.36 1009.72 1009.99 1009.98 1009.90 1009.84
989.92 989.71 989.79 990.06 990.32 990.51 991.68 992.85 993.57 994.34 995.27 996.12 996.34 996.79 997.65 999.07 1000.58 1001.54 1002.32 1002.63 1003.07 1003.96 1004.02 1004.62 1005.41 1005.91 1006.51 1006.69 1006.72 1006.36 1006.32 1006.61 1007.14 1007.73 1008.03 1008.41 1008.84 1009.31 1009.72 1010.04 1010.00 1010.03 1009.76
990.54 990.47 990.52 990.58 990.70 991.31 992.14 993.17 994.52 996.53 997.28 997.97 998.20 998.18 998.53 1000.23 1001.34 1002.18 1002.88 1003.42 1003.96 1004.26 1003.83 1004.47 1005.22 1005.69 1006.06 1006.41 1006.24 1006.09 1005.99 1006.21 1006.73 1007.40 1007.88 1008.41 1008.88 1009.33 1009.73 1009.95 1009.94 1009.98 1009.89
990.52 990.81 990.69 990.56 990.67 990.85 991.99 993.37 994.71 995.87 997.37 998.86 999.91 999.97 1000.43 1001.16 1001.97 1002.71 1003.48 1004.06 1004.64 1004.29 1003.84 1004.29 1004.94 1005.56 1005.85 1006.21 1006.09 1005.89 1006.11 1006.45 1006.60 1007.06 1007.81 1008.37 1008.84 1009.19 1009.52 1009.71 1009.93 1009.85 1009.73
990.79 990.84 990.59 990.32 990.17 991.00 992.01 993.39 994.51 995.81 997.25 998.81 1000.16 1001.27 1001.92 1002.28 1002.85 1003.29 1003.46 1003.39 1003.79 1003.92 1004.08 1004.25 1004.46 1005.21 1005.66 1005.92 1005.98 1006.44 1006.37 1006.85 1006.81 1007.06 1007.36 1007.96 1008.53 1008.96 1009.20 1009.22 1009.64 1009.82 1009.57
989.86 990.36 990.47 990.89 991.07 991.52 992.36 993.59 994.74 995.91 997.06 998.19 999.27 1000.96 1002.24 1002.83 1003.56 1003.90 1003.47 1002.96 1003.16 1003.48 1004.00 1004.18 1004.35 1004.74 1005.50 1005.63 1006.18 1005.85 1006.26 1006.73 1006.84 1006.94 1007.22 1007.49 1007.93 1008.39 1008.89 1009.14 1009.43 1009.58 1009.73
989.70 990.32 990.90 990.83 991.35 991.72 992.39 993.44 994.59 995.84 997.00 997.73 999.11 1000.88 1001.52 1001.51 1002.89 1003.25 1003.19 1003.05 1002.98 1003.29 1003.67 1003.87 1004.27 1004.65 1005.22 1005.72 1005.80 1005.81 1005.96 1005.99 1006.34 1006.52 1006.92 1007.37 1007.90 1008.00 1008.25 1008.74 1009.02 1009.13 1008.97
989.79 990.22 990.50 990.84 991.47 992.22 993.12 993.85 994.54 995.82 997.04 998.43 1000.19 1001.29 1001.64 1001.99 1002.77 1003.31 1003.73 1003.86 1003.89 1004.10 1004.04 1004.37 1004.81 1005.35 1005.70 1005.82 1005.85 1005.92 1006.00 1006.32 1006.20 1006.78 1007.11 1007.04 1007.33 1007.87 1008.18 1008.43 1008.57 1008.61 1008.52
989.57 989.97 990.16 991.17 992.16 993.11 993.40 994.16 995.02 996.14 997.84 999.40 1000.24 1001.15 1001.78 1002.47 1003.29 1003.94 1004.40 1004.44 1004.81 1004.99 1005.25 1005.52 1005.90 1006.29 1006.36 1006.48 1006.65 1006.71 1006.69 1006.46 1006.37 1006.77 1007.01 1007.43 1007.58 1007.52 1007.64 1008.13 1008.31 1008.34 1008.61
989.49 990.18 990.91 991.71 992.28 993.19 994.17 995.18 996.47 997.48 998.72 999.68 1000.72 1001.88 1002.76 1003.57 1004.33 1005.09 1005.69 1005.99 1006.33 1006.67 1006.88 1007.18 1007.35 1007.42 1007.32 1007.47 1007.51 1007.52 1007.43 1007.48 1006.53 1006.88 1006.83 1007.40 1007.66 1007.81 1007.85 1008.20 1008.36 1008.56 1008.78
989.87 990.44 991.11 992.26 993.26 994.23 995.48 996.63 997.63 998.43 999.38 1000.60 1001.92 1003.08 1003.94 1004.69 1005.43 1006.16 1006.63 1006.80 1007.26 1007.65 1008.07 1008.30 1008.52 1008.74 1008.73 1008.64 1008.61 1008.53 1008.55 1008.29 1007.71 1007.69 1007.32 1007.71 1008.08 1008.15 1008.33 1008.62 1008.95 1009.36 1009.58
990.91 991.39 992.31 993.68 994.85 995.51 996.44 997.46 998.58 999.67 1000.81 1002.07 1003.24 1004.18 1005.08 1005.91 1006.77 1007.38 1007.73 1007.57 1008.16 1008.72 1009.04 1009.38 1009.57 1009.64 1009.63 1009.63 1009.59 1009.33 1008.96 1008.72 1008.57 1008.43 1008.40 1008.70 1009.07 1009.30 1009.48 1009.81 1010.01 1010.15 1010.23
Wind_Speed
17 18 16 17 18 17 16 17 16 13 14 16 16 16 16 17 18 17 14 14 14 13 11 12 12 9 7 6 6 6 6 6 6 4 3 3 3 3 2 1 4 6 7
18 17 18 17 19 18 18 17 16 14 14 16 17 17 18 18 18 17 16 14 15 15 14 14 12 8 9 6 7 7 7 5 7 4 3 4 3 3 1 2 2 3 1
17 18 18 18 19 20 18 17 17 15 16 18 19 19 19 18 18 17 16 15 15 14 14 13 12 10 9 8 8 7 7 6 7 3 5 4 2 3 2 2 2 3 4
17 19 19 18 18 20 19 19 19 18 18 19 19 20 19 19 18 17 16 15 14 13 13 12 10 10 11 10 8 8 7 6 6 5 3 5 5 3 4 4 4 2 4
20 20 20 17 19 22 22 20 18 17 17 19 19 19 19 17 15 18 16 15 15 14 12 10 10 9 3 5 7 9 6 8 4 6 6 4 6 4 6 4 3 3 3
22 22 21 20 20 22 21 20 18 19 19 19 19 20 19 14 16 14 17 16 15 14 12 11 10 7 6 1 2 4 4 7 6 5 6 9 8 8 5 6 5 4 2
24 24 22 21 22 23 21 21 20 19 17 18 18 18 19 14 20 16 13 14 14 12 12 11 10 8 9 10 5 2 3 2 3 5 7 8 7 6 7 8 8 5 4
26 27 24 22 21 23 22 21 19 18 19 17 18 18 17 13 19 18 14 15 11 12 12 12 10 10 10 9 10 10 7 5 4 4 5 4 4 7 7 6 2 2 8
25 27 24 23 21 24 23 20 19 18 17 17 18 19 16 16 18 18 14 13 12 12 11 11 10 9 10 2 8 8 5 5 4 6 6 5 1 6 8 8 4 4 5
25 22 22 21 25 23 20 19 18 17 18 17 16 15 17 21 13 18 12 11 13 10 10 9 8 3 12 9 9 8 7 7 5 3 2 2 3 5 11 11 8 9 5
28 29 24 24 24 19 16 15 16 16 17 16 16 15 20 19 14 14 11 11 11 10 10 8 8 10 9 9 7 6 7 8 5 5 4 3 6 7 8 8 5 5 8
10 18 18 17 13 13 18 16 17 18 18 17 19 16 12 14 13 6 6 3 9 10 9 8 8 10 8 7 6 7 10 8 8 6 7 6 5 4 5 7 6 3 2
16 12 15 16 15 16 17 17 15 17 15 16 16 13 12 11 9 8 8 11 10 7 5 11 16 10 9 7 6 8 9 6 5 6 5 5 5 5 5 4 3 4 1
13 7 9 13 13 13 12 14 15 15 15 14 13 13 13 11 11 9 8 8 10 10 12 9 9 9 3 10 6 6 6 6 6 5 5 4 5 5 4 4 4 6 5
8 5 8 8 10 11 10 7 13 12 13 14 13 13 14 13 12 12 12 11 9 9 11 9 8 8 6 6 6 6 6 6 5 4 5 6 5 5 4 4 4 5 6
7 3 7 7 9 10 12 12 24 15 13 13 13 13 10 16 18 14 12 14 19 15 10 9 8 8 7 7 6 6 5 4 6 4 4 5 5 5 4 3 3 5 7
1 6 6 8 11 11 13 13 13 14 24 21 16 16 13 19 17 15 14 15 13 8 6 8 7 8 8 7 8 7 6 4 6 7 5 4 4 4 4 3 3 4 4
3 9 9 7 10 13 14 14 12 13 12 10 16 10 16 18 17 17 16 12 6 4 6 7 8 7 7 6 7 6 5 5 4 6 6 6 5 4 5 5 4 5 5
7 5 7 10 11 12 13 12 13 13 12 11 10 10 11 15 13 15 15 9 8 6 6 6 6 7 7 7 7 5 5 4 4 5 5 6 6 5 5 4 4 3 3
12 13 10 10 12 13 14 13 12 12 13 12 12 11 8 8 6 6 5 7 8 7 6 6 7 8 6 6 6 7 6 7 6 5 4 4 5 6 5 4 5 5 5
11 12 10 13 10 13 13 14 13 13 12 11 12 10 9 11 11 8 6 4 4 6 5 6 6 6 8 7 7 6 6 4 3 4 6 6 5 5 6 6 5 6 7
13 14 13 13 12 12 13 11 13 13 12 12 10 6 7 8 8 6 5 4 3 3 1 7 4 5 4 5 8 7 6 5 5 4 4 4 6 7 6 6 6 6 5
12 14 13 12 10 12 12 11 12 13 13 12 11 10 8 8 7 7 6 6 7 6 7 8 6 6 5 5 4 1 2 3 4 4 4 3 3 5 5 3 2 2 1
14 14 15 14 13 13 13 13 11 13 13 11 11 9 8 9 9 10 7 7 8 8 9 8 8 9 5 6 5 5 4 5 1 2 3 5 4 4 2 3 5 4 2
13 14 13 13 12 12 14 14 12 12 12 11 12 10 10 10 9 9 6 8 9 9 11 8 7 10 11 12 9 8 6 6 6 6 4 6 8 9 8 7 8 9 9
13 14 14 13 12 12 12 12 12 12 13 12 11 10 10 10 10 9 8 8 11 10 11 10 13 17 15 12 12 9 8 9 8 9 8 8 8 7 8 9 11 7 8
Wind_Direction
286 281 270 272 268 260 256 254 248 233 219 222 213 201 193 190 190 191 181 171 189 193 193 198 197 194 222 211 229 234 226 231 248 150 89 156 169 209 197 225 260 214 159
283 274 271 272 269 254 252 249 242 230 219 217 210 195 191 192 188 187 178 171 192 188 189 203 196 192 214 226 225 229 226 200 260 170 140 186 184 185 158 206 241 251 188
282 274 266 264 269 265 251 249 240 224 213 214 210 199 189 188 185 186 176 178 189 185 186 193 198 191 198 214 228 201 215 221 212 210 156 192 137 146 146 135 168 123 74
283 275 267 264 267 266 255 246 238 225 216 211 207 199 188 181 185 180 177 180 178 181 187 189 192 193 207 209 211 222 229 217 219 211 193 180 173 175 168 166 155 122 119
288 276 268 259 261 265 253 245 236 222 215 208 199 195 183 178 184 176 177 173 174 176 177 181 192 199 169 209 218 208 203 221 195 214 214 187 191 166 195 171 154 134 95
287 277 270 263 254 254 244 234 223 215 208 200 191 187 175 183 149 152 165 169 169 174 173 182 167 156 154 139 336 352 332 242 229 222 198 217 201 192 184 175 158 153 133
282 275 273 262 253 248 236 221 211 203 190 189 182 177 173 170 137 142 153 163 173 169 171 178 184 179 189 193 176 214 246 345 344 288 245 236 197 172 167 179 188 177 130
277 278 263 252 246 243 223 210 200 187 181 176 174 170 168 141 137 142 150 161 159 169 173 178 187 171 196 200 184 198 208 202 226 237 264 234 179 162 189 184 146 114 107
265 259 246 240 234 229 207 197 183 174 170 168 166 164 155 148 144 149 169 158 164 172 176 177 184 181 144 195 196 202 177 165 66 30 23 124 129 213 162 141 150 180 155
272 258 252 234 229 209 192 177 170 166 162 163 150 153 140 150 158 154 173 172 160 164 174 158 58 224 144 174 209 204 197 188 164 149 160 126 198 195 171 185 168 184 170
281 265 241 209 196 178 154 155 158 151 149 136 141 144 151 148 157 162 203 163 163 177 182 172 168 133 147 184 234 222 196 154 146 155 149 160 190 176 195 210 219 214 185
335 143 139 138 138 145 151 148 145 143 133 135 135 137 131 141 142 163 167 15 153 188 180 179 124 137 153 175 213 108 131 168 167 162 175 168 174 174 190 206 214 197 58
18 83 114 125 133 140 142 140 136 138 129 138 136 128 135 135 136 96 103 106 57 188 175 79 103 124 136 128 136 147 161 202 172 165 181 156 175 161 150 172 150 123 96
354 77 108 116 125 130 139 140 134 140 139 137 131 137 143 139 144 147 131 122 126 104 109 115 115 112 60 102 125 165 210 168 166 170 167 147 126 144 147 164 185 194 189
330 30 76 102 104 101 73 105 131 129 134 138 147 148 147 152 157 152 159 166 165 133 127 140 150 152 139 146 165 191 161 163 153 171 156 159 162 153 154 172 192 180 195
329 76 92 98 111 107 102 83 47 73 84 90 114 143 138 121 121 117 101 101 110 146 163 155 160 161 159 159 175 173 170 162 124 157 166 167 170 170 166 173 218 184 205
353 131 123 125 121 122 120 118 107 63 65 53 61 82 111 129 122 118 112 118 142 178 164 161 162 167 166 166 189 177 172 140 150 150 168 161 166 164 160 171 192 225 243
132 142 143 142 133 132 122 124 123 125 118 95 39 72 108 118 122 121 125 126 151 202 159 167 165 170 167 173 199 177 160 155 156 150 157 168 170 171 181 175 190 219 216
275 183 176 141 125 122 123 127 127 122 118 116 110 75 76 85 107 133 162 147 161 164 160 172 164 171 170 187 176 189 163 167 168 170 166 167 160 176 192 199 183 270 206
175 171 152 137 135 135 132 131 122 126 134 144 133 124 125 118 130 156 179 170 165 162 169 178 184 162 169 179 170 199 151 186 171 181 172 176 165 174 179 192 177 195 209
142 152 152 153 147 142 134 136 135 137 143 145 122 141 181 151 150 158 158 165 148 156 168 170 167 165 167 166 193 164 204 165 175 161 163 167 181 201 187 183 196 206 211
149 155 160 148 136 139 134 141 142 139 136 125 126 130 123 127 133 128 111 115 107 62 87 148 131 148 166 196 171 181 172 176 199 169 207 209 177 179 190 201 215 226 231
149 154 148 126 123 133 134 125 132 127 126 129 131 132 122 105 94 87 76 70 67 64 58 62 58 63 42 63 40 53 335 207 205 163 210 178 248 209 181 213 239 282 352
147 137 129 134 141 130 129 121 119 117 124 123 114 99 92 88 85 82 75 78 76 65 60 59 54 55 41 58 38 31 15 347 90 263 183 179 208 218 202 198 211 200 196
136 128 129 118 129 116 120 121 118 116 109 101 102 95 90 87 83 83 72 85 78 72 66 61 56 55 49 53 49 43 26 26 22 339 57 51 55 54 57 53 57 53 53
135 130 124 118 122 125 117 115 109 105 105 103 99 91 90 89 86 85 78 88 90 78 77 70 66 64 58 49 48 37 41 47 59 48 75 80 81 78 81 81 76 69 70